York, NE

11:39 AM CST on November 23, 2017 (GMT -0600)
York Municipal

Weather History for KJYR - October, 2012

Change the Weather History Date:

Friday, October 12, 2012

  Actual Average Record
Temperature  
Mean Temperature 41 °F -  
Max Temperature 51 °F 69 °F 94 °F (1975)
Min Temperature 32 °F 43 °F 26 °F (1977)
Degree Days  
Heating Degree Days 24    
Moisture  
Dew Point 27 °F    
Average Humidity 53    
Maximum Humidity 71    
Minimum Humidity 32    
Precipitation  
Precipitation 0.00 in - - ()
Sea Level Pressure  
Sea Level Pressure 30.23 in    
Wind  
Wind Speed 13 mph (ESE)    
Max Wind Speed 18 mph    
Max Gust Speed 21 mph    
Visibility 10 miles    
Events      
Averages and records for this station are not official NWS values.
T = Trace of Precipitation, MM = Missing Value Source: NWS Daily Summary

Daily Weather History Graph

Daily Weather History Graph

Search for Another Location

Airport or City:

Trip Planner

Search our weather history database for the weather conditions in past years. The results will help you decide how hot, cold, wet, or windy it might be!

Date:

Astronomy

Oct. 12, 2012 Rise Set
Actual Time 7:39 AM CDT 6:53 PM CDT
Civil Twilight 7:11 AM CDT 7:21 PM CDT
Nautical Twilight 6:39 AM CDT 7:53 PM CDT
Astronomical Twilight 6:07 AM CDT 8:24 PM CDT
Moon 4:22 AM CDT (10/12) 5:05 PM CDT (10/12)
Length of Visible Light 12h 09m
Length of Day
11h 14m
Waning Crescent, 10% of the Moon is Illuminated
Oct 12
Waning Crescent
Oct 15
New
Oct 21
First Quarter
Oct 29
Full
Nov 6
Last Quarter

Hourly Weather History & Observations

Time (CDT) Temp. Windchill Dew Point Humidity Pressure Visibility Wind Dir Wind Speed Gust Speed Precip Events Conditions
12:35 AM 42.8 °F 35.4 °F 26.6 °F 53% 30.34 in 10.0 mi NE 15.0 mph 20.7 mph N/A   Overcast
12:55 AM 42.8 °F 36.2 °F 26.6 °F 53% 30.34 in 10.0 mi NE 12.7 mph - N/A   Overcast
1:15 AM 42.8 °F 35.8 °F 26.6 °F 53% 30.33 in 10.0 mi NE 13.8 mph - N/A   Overcast
1:35 AM 41.0 °F 33.5 °F 26.6 °F 57% 30.34 in 10.0 mi ENE 13.8 mph 19.6 mph N/A   Overcast
1:55 AM 41.0 °F 33.1 °F 24.8 °F 53% 30.33 in 10.0 mi ENE 15.0 mph 19.6 mph N/A   Overcast
2:15 AM 41.0 °F 32.5 °F 24.8 °F 53% 30.33 in 10.0 mi ENE 17.3 mph 20.7 mph N/A   Overcast
2:35 AM 41.0 °F 32.5 °F 23.0 °F 49% 30.34 in 10.0 mi ENE 17.3 mph - N/A   Overcast
3:15 AM 41.0 °F 32.5 °F 23.0 °F 49% 30.33 in 10.0 mi ENE 17.3 mph - N/A   Overcast
3:55 AM 39.2 °F 31.6 °F 23.0 °F 52% 30.32 in 10.0 mi ENE 12.7 mph - N/A   Overcast
4:15 AM 39.2 °F 31.6 °F 23.0 °F 52% 30.32 in 10.0 mi ENE 12.7 mph - N/A   Overcast
4:35 AM 37.4 °F 30.3 °F 23.0 °F 56% 30.32 in 10.0 mi NE 10.4 mph - N/A   Overcast
4:55 AM 37.4 °F 31.4 °F 23.0 °F 56% 30.32 in 10.0 mi NE 8.1 mph - N/A   Overcast
5:15 AM 37.4 °F 30.3 °F 23.0 °F 56% 30.32 in 10.0 mi NE 10.4 mph - N/A   Mostly Cloudy
5:55 AM 37.4 °F 30.8 °F 21.2 °F 52% 30.30 in 10.0 mi ENE 9.2 mph - N/A   Overcast
6:15 AM 35.6 °F 27.1 °F 19.4 °F 52% 30.31 in 10.0 mi ENE 12.7 mph - N/A   Overcast
6:35 AM 35.6 °F 27.1 °F 19.4 °F 52% 30.30 in 10.0 mi ENE 12.7 mph - N/A   Overcast
6:55 AM 35.6 °F 28.6 °F 19.4 °F 52% 30.31 in 10.0 mi ENE 9.2 mph - N/A   Overcast
7:15 AM 33.8 °F 26.4 °F 19.4 °F 56% 30.31 in 10.0 mi ENE 9.2 mph - N/A   Overcast
7:35 AM 32.0 °F 24.8 °F 19.4 °F 60% 30.31 in 10.0 mi ENE 8.1 mph - N/A   Scattered Clouds
7:55 AM 32.0 °F 25.6 °F 19.4 °F 60% 30.32 in 10.0 mi ENE 6.9 mph - N/A   Clear
8:15 AM 32.0 °F 24.8 °F 19.4 °F 60% 30.32 in 10.0 mi ENE 8.1 mph - N/A   Clear
8:35 AM 35.6 °F 29.2 °F 19.4 °F 52% 30.32 in 10.0 mi ENE 8.1 mph - N/A   Clear
9:15 AM 37.4 °F 28.9 °F 19.4 °F 48% 30.32 in 10.0 mi East 13.8 mph - N/A   Overcast
9:35 AM 41.0 °F 32.2 °F 19.4 °F 42% 30.31 in 10.0 mi East 18.4 mph - N/A   Mostly Cloudy
9:55 AM 42.8 °F 35.1 °F 19.4 °F 39% 30.32 in 10.0 mi ESE 16.1 mph - N/A   Mostly Cloudy
10:15 AM 42.8 °F 35.1 °F 19.4 °F 39% 30.30 in 10.0 mi ESE 16.1 mph 19.6 mph N/A   Overcast
10:35 AM 44.6 °F 38.4 °F 19.4 °F 37% 30.30 in 10.0 mi SE 12.7 mph - N/A   Overcast
11:15 AM 44.6 °F 38.4 °F 19.4 °F 37% 30.29 in 10.0 mi SE 12.7 mph - N/A   Overcast
11:35 AM 46.4 °F 40.4 °F 19.4 °F 34% 30.27 in 10.0 mi ESE 13.8 mph - N/A   Overcast
11:55 AM 48.2 °F - 19.4 °F 32% 30.27 in 10.0 mi SE 16.1 mph - N/A   Overcast
12:15 PM 48.2 °F - 19.4 °F 32% 30.25 in 10.0 mi ESE 12.7 mph - N/A   Overcast
12:35 PM 46.4 °F 40.1 °F 21.2 °F 37% 30.26 in 10.0 mi SE 15.0 mph - N/A   Overcast
12:55 PM 48.2 °F - 21.2 °F 34% 30.25 in 10.0 mi SE 12.7 mph - N/A   Overcast
1:55 PM 48.2 °F - 24.8 °F 40% 30.21 in 10.0 mi SSE 11.5 mph - N/A   Overcast
2:15 PM 48.2 °F - 28.4 °F 46% 30.20 in 10.0 mi South 13.8 mph - N/A   Overcast
2:35 PM 48.2 °F - 30.2 °F 50% 30.20 in 10.0 mi South 12.7 mph 17.3 mph N/A   Overcast
2:55 PM 48.2 °F - 30.2 °F 50% 30.18 in 10.0 mi SSE 12.7 mph - N/A   Overcast
3:15 PM 48.2 °F - 33.8 °F 58% 30.16 in 10.0 mi SSE 11.5 mph - N/A   Overcast
3:35 PM 48.2 °F - 33.8 °F 58% 30.16 in 10.0 mi South 13.8 mph - N/A   Overcast
3:55 PM 48.2 °F - 32.0 °F 54% 30.15 in 10.0 mi South 11.5 mph - N/A   Overcast
4:15 PM 48.2 °F - 32.0 °F 54% 30.15 in 10.0 mi South 11.5 mph - N/A   Overcast
4:35 PM 48.2 °F - 35.6 °F 62% 30.14 in 10.0 mi SSE 13.8 mph 20.7 mph N/A   Overcast
5:15 PM 48.2 °F - 35.6 °F 62% 30.13 in 10.0 mi South 10.4 mph - N/A   Overcast
6:15 PM 50.0 °F - 35.6 °F 58% 30.08 in 10.0 mi SSE 13.8 mph 18.4 mph N/A   Mostly Cloudy
6:35 PM 50.0 °F - 35.6 °F 58% 30.08 in 10.0 mi South 11.5 mph - N/A   Overcast
6:55 PM 50.0 °F - 37.4 °F 62% 30.06 in 10.0 mi South 15.0 mph - N/A   Overcast
7:15 PM 50.0 °F - 39.2 °F 66% 30.05 in 10.0 mi South 17.3 mph - N/A   Overcast
7:55 PM 50.0 °F - 41.0 °F 71% 30.04 in 10.0 mi South 13.8 mph - N/A   Overcast
8:15 PM 50.0 °F - 41.0 °F 71% 30.04 in 10.0 mi South 12.7 mph - N/A   Overcast
8:35 PM 50.0 °F - 41.0 °F 71% 30.05 in 10.0 mi South 12.7 mph - N/A   Overcast
9:15 PM 50.0 °F - 41.0 °F 71% 30.03 in 10.0 mi South 10.4 mph - N/A   Overcast
9:35 PM 50.0 °F - 41.0 °F 71% 30.01 in 10.0 mi South 10.4 mph - N/A   Overcast
9:55 PM 50.0 °F - 41.0 °F 71% 30.00 in 10.0 mi South 11.5 mph - N/A   Overcast
10:15 PM 51.8 °F - 41.0 °F 67% 30.01 in 10.0 mi South 12.7 mph - N/A   Overcast